Precipitable_Water
0.51 0.37 0.32 0.34 0.39 0.42 0.44 0.43 0.42 0.41 0.39 0.37 0.40 0.50 0.62 0.70 0.76 0.91 0.96 1.13 1.25 1.08 1.04 1.13 1.18 1.20 1.26 1.34 1.45 1.56 1.60 1.55 1.56 1.54 1.55 1.44 1.33 1.24 1.18 1.17 1.18 1.17 1.17 1.25 1.26 1.28 1.28 1.31 1.39 1.44 1.46 1.48 1.51 1.52 1.52 1.50 1.49 1.44 1.42 1.50 1.53 1.62 1.68 1.63 1.56 1.53 1.51 1.49 1.50 1.45 1.38 1.35 1.39 1.40 1.50 1.59 1.65 1.68 1.68 1.67 1.65 1.61 1.59 1.60 1.61 1.61
0.46 0.35 0.30 0.35 0.42 0.46 0.46 0.46 0.43 0.40 0.40 0.37 0.36 0.39 0.52 0.66 0.66 0.82 0.85 1.00 1.15 0.95 1.00 1.16 1.17 1.19 1.28 1.38 1.45 1.55 1.54 1.45 1.50 1.53 1.55 1.52 1.42 1.31 1.20 1.16 1.17 1.18 1.28 1.30 1.26 1.28 1.31 1.32 1.34 1.39 1.41 1.43 1.38 1.39 1.45 1.42 1.45 1.45 1.46 1.45 1.53 1.60 1.62 1.60 1.55 1.51 1.50 1.52 1.47 1.36 1.29 1.30 1.30 1.30 1.35 1.44 1.58 1.64 1.67 1.67 1.66 1.67 1.64 1.61 1.59 1.59
0.34 0.28 0.30 0.36 0.42 0.45 0.45 0.45 0.44 0.41 0.38 0.36 0.35 0.37 0.44 0.50 0.56 0.78 0.81 0.89 0.97 0.91 0.93 1.11 1.09 1.16 1.24 1.31 1.40 1.46 1.48 1.52 1.56 1.58 1.59 1.57 1.51 1.40 1.29 1.19 1.18 1.20 1.19 1.22 1.21 1.24 1.28 1.31 1.33 1.34 1.35 1.36 1.38 1.37 1.35 1.39 1.45 1.45 1.45 1.46 1.52 1.56 1.57 1.57 1.56 1.51 1.46 1.51 1.50 1.42 1.34 1.31 1.27 1.35 1.38 1.45 1.58 1.67 1.64 1.66 1.67 1.68 1.68 1.65 1.61 1.60
0.27 0.29 0.34 0.40 0.39 0.39 0.41 0.42 0.41 0.39 0.38 0.36 0.35 0.36 0.41 0.53 0.59 0.52 0.82 0.89 0.98 0.91 0.89 1.05 1.05 1.13 1.27 1.36 1.39 1.46 1.50 1.53 1.61 1.66 1.68 1.68 1.60 1.50 1.38 1.25 1.18 1.16 1.15 1.15 1.16 1.16 1.23 1.29 1.31 1.30 1.28 1.31 1.36 1.36 1.35 1.37 1.38 1.41 1.44 1.46 1.50 1.53 1.56 1.56 1.55 1.50 1.51 1.52 1.54 1.52 1.45 1.42 1.37 1.29 1.38 1.43 1.51 1.56 1.59 1.58 1.66 1.70 1.69 1.66 1.62 1.63
0.27 0.29 0.36 0.39 0.36 0.34 0.34 0.37 0.38 0.37 0.35 0.37 0.37 0.38 0.43 0.47 0.53 0.54 0.65 0.90 1.00 1.01 1.06 1.06 1.01 1.01 1.14 1.13 1.21 1.40 1.50 1.47 1.54 1.63 1.67 1.72 1.72 1.69 1.57 1.44 1.31 1.20 1.14 1.14 1.16 1.17 1.20 1.23 1.24 1.24 1.25 1.29 1.28 1.31 1.30 1.30 1.33 1.37 1.41 1.44 1.48 1.54 1.53 1.54 1.54 1.49 1.49 1.50 1.50 1.52 1.51 1.51 1.45 1.45 1.40 1.37 1.36 1.43 1.48 1.52 1.56 1.63 1.71 1.69 1.64 1.63
0.29 0.34 0.36 0.34 0.34 0.30 0.30 0.32 0.35 0.37 0.34 0.35 0.38 0.41 0.46 0.48 0.46 0.60 0.71 0.74 0.78 0.76 0.94 0.94 0.74 0.77 1.02 1.09 1.14 1.27 1.36 1.36 1.50 1.52 1.56 1.62 1.67 1.71 1.57 1.43 1.38 1.32 1.25 1.18 1.16 1.17 1.19 1.21 1.24 1.27 1.29 1.24 1.25 1.27 1.30 1.33 1.31 1.35 1.41 1.45 1.45 1.54 1.53 1.51 1.52 1.49 1.45 1.44 1.44 1.40 1.33 1.29 1.31 1.28 1.27 1.21 1.23 1.31 1.35 1.36 1.51 1.60 1.68 1.69 1.68 1.66
0.31 0.37 0.33 0.30 0.30 0.28 0.26 0.26 0.32 0.36 0.33 0.32 0.36 0.44 0.49 0.48 0.50 0.61 0.62 0.67 0.61 0.55 0.81 0.99 0.67 0.62 0.95 0.98 1.12 1.22 1.26 1.32 1.42 1.44 1.49 1.58 1.64 1.67 1.61 1.53 1.42 1.32 1.25 1.25 1.25 1.23 1.21 1.22 1.24 1.25 1.25 1.24 1.21 1.24 1.31 1.34 1.34 1.35 1.40 1.46 1.43 1.47 1.50 1.50 1.49 1.49 1.44 1.41 1.44 1.40 1.35 1.34 1.34 1.31 1.34 1.39 1.41 1.41 1.45 1.50 1.46 1.52 1.62 1.68 1.68 1.70
0.32 0.33 0.31 0.29 0.28 0.26 0.24 0.20 0.26 0.31 0.30 0.29 0.39 0.42 0.46 0.48 0.50 0.56 0.52 0.55 0.65 0.88 1.00 0.97 0.83 0.65 0.69 0.91 1.15 1.20 1.15 1.19 1.25 1.34 1.44 1.51 1.59 1.63 1.63 1.60 1.52 1.40 1.32 1.24 1.24 1.24 1.23 1.23 1.22 1.20 1.23 1.25 1.21 1.27 1.29 1.32 1.35 1.34 1.36 1.44 1.46 1.46 1.48 1.46 1.47 1.46 1.45 1.38 1.41 1.40 1.38 1.39 1.45 1.47 1.45 1.47 1.46 1.52 1.55 1.51 1.50 1.53 1.57 1.65 1.70 1.70
0.29 0.29 0.29 0.26 0.25 0.24 0.21 0.22 0.25 0.27 0.27 0.30 0.39 0.42 0.42 0.45 0.49 0.54 0.51 0.52 0.64 0.69 0.63 0.80 0.90 0.66 0.65 0.89 1.12 1.15 1.02 1.10 1.15 1.23 1.33 1.45 1.56 1.61 1.62 1.63 1.60 1.50 1.39 1.31 1.25 1.24 1.25 1.24 1.24 1.25 1.24 1.27 1.30 1.29 1.24 1.26 1.30 1.34 1.37 1.41 1.47 1.45 1.48 1.47 1.46 1.43 1.44 1.40 1.40 1.41 1.42 1.42 1.52 1.60 1.61 1.62 1.60 1.53 1.57 1.52 1.56 1.55 1.55 1.60 1.66 1.70
0.32 0.30 0.31 0.29 0.24 0.21 0.24 0.26 0.25 0.25 0.22 0.30 0.38 0.40 0.41 0.45 0.52 0.56 0.51 0.54 0.63 0.60 0.50 0.66 0.82 0.60 0.60 0.81 0.95 1.10 1.04 1.00 1.08 1.19 1.29 1.39 1.48 1.54 1.60 1.63 1.64 1.60 1.51 1.40 1.32 1.29 1.29 1.29 1.28 1.28 1.29 1.31 1.30 1.28 1.26 1.27 1.33 1.35 1.37 1.37 1.41 1.43 1.45 1.46 1.46 1.44 1.42 1.41 1.41 1.39 1.42 1.42 1.46 1.60 1.65 1.69 1.63 1.57 1.57 1.52 1.55 1.56 1.55 1.57 1.59 1.63
0.37 0.37 0.38 0.31 0.25 0.25 0.25 0.27 0.26 0.24 0.23 0.30 0.35 0.36 0.38 0.40 0.45 0.61 0.62 0.61 0.60 0.47 0.48 0.65 0.78 0.70 0.52 0.69 0.82 0.84 0.89 0.95 1.06 1.18 1.30 1.40 1.47 1.53 1.60 1.63 1.64 1.62 1.57 1.47 1.37 1.34 1.34 1.35 1.34 1.34 1.29 1.28 1.32 1.32 1.30 1.29 1.30 1.35 1.35 1.33 1.35 1.40 1.44 1.43 1.44 1.44 1.41 1.42 1.40 1.38 1.40 1.42 1.44 1.55 1.62 1.64 1.62 1.61 1.58 1.52 1.54 1.55 1.56 1.61 1.61 1.63
0.32 0.32 0.31 0.33 0.33 0.30 0.28 0.25 0.27 0.26 0.25 0.25 0.28 0.31 0.33 0.36 0.45 0.49 0.53 0.64 0.45 0.39 0.48 0.64 0.71 0.77 0.51 0.59 0.80 0.94 1.05 1.07 1.07 1.06 1.15 1.28 1.39 1.48 1.55 1.62 1.67 1.67 1.63 1.57 1.45 1.38 1.38 1.37 1.35 1.34 1.28 1.29 1.31 1.33 1.31 1.29 1.29 1.31 1.34 1.33 1.29 1.36 1.40 1.40 1.41 1.43 1.42 1.42 1.40 1.41 1.41 1.42 1.47 1.53 1.56 1.58 1.59 1.62 1.57 1.55 1.53 1.58 1.59 1.59 1.63 1.65
0.28 0.28 0.32 0.32 0.37 0.31 0.25 0.23 0.24 0.24 0.23 0.23 0.25 0.28 0.26 0.26 0.32 0.30 0.42 0.36 0.40 0.37 0.52 0.65 0.74 0.68 0.60 0.70 0.82 0.94 1.03 1.08 1.11 1.14 1.17 1.25 1.37 1.47 1.54 1.58 1.66 1.70 1.69 1.62 1.52 1.44 1.39 1.35 1.31 1.27 1.28 1.30 1.31 1.29 1.30 1.29 1.27 1.26 1.29 1.31 1.26 1.27 1.35 1.37 1.39 1.39 1.41 1.41 1.40 1.40 1.43 1.45 1.50 1.54 1.56 1.57 1.60 1.66 1.62 1.61 1.57 1.55 1.50 1.55 1.54 1.58
0.27 0.29 0.29 0.30 0.31 0.33 0.29 0.20 0.21 0.19 0.21 0.20 0.20 0.23 0.23 0.22 0.22 0.23 0.31 0.37 0.41 0.49 0.63 0.64 0.79 0.56 0.68 0.79 0.95 0.91 0.98 1.09 1.17 1.20 1.24 1.29 1.36 1.46 1.53 1.58 1.63 1.67 1.68 1.68 1.61 1.51 1.44 1.39 1.36 1.33 1.29 1.29 1.31 1.31 1.32 1.32 1.30 1.26 1.23 1.27 1.26 1.25 1.31 1.35 1.36 1.37 1.38 1.39 1.40 1.42 1.44 1.48 1.52 1.53 1.57 1.59 1.60 1.65 1.67 1.68 1.64 1.60 1.53 1.49 1.51 1.55
0.20 0.18 0.23 0.27 0.24 0.33 0.29 0.26 0.25 0.24 0.22 0.20 0.22 0.23 0.23 0.24 0.21 0.20 0.27 0.23 0.25 0.35 0.55 0.70 0.57 0.51 0.51 0.61 0.96 0.99 1.04 1.07 1.14 1.22 1.27 1.31 1.38 1.47 1.56 1.60 1.63 1.66 1.67 1.71 1.67 1.57 1.49 1.46 1.44 1.42 1.39 1.35 1.33 1.33 1.34 1.36 1.35 1.33 1.27 1.22 1.22 1.24 1.28 1.30 1.31 1.33 1.33 1.36 1.38 1.40 1.44 1.49 1.54 1.56 1.58 1.60 1.63 1.64 1.63 1.65 1.65 1.65 1.63 1.55 1.56 1.59
0.25 0.23 0.28 0.32 0.33 0.33 0.28 0.30 0.31 0.28 0.24 0.23 0.23 0.26 0.23 0.22 0.30 0.22 0.30 0.30 0.27 0.33 0.40 0.54 0.50 0.62 0.61 0.93 1.05 1.07 1.06 1.04 1.11 1.17 1.25 1.26 1.35 1.45 1.49 1.53 1.58 1.64 1.65 1.69 1.68 1.64 1.57 1.53 1.53 1.52 1.49 1.46 1.42 1.39 1.38 1.38 1.39 1.36 1.34 1.29 1.21 1.18 1.24 1.28 1.28 1.29 1.31 1.35 1.38 1.39 1.39 1.43 1.50 1.58 1.63 1.63 1.64 1.65 1.66 1.63 1.61 1.63 1.65 1.65 1.64 1.68
0.28 0.24 0.32 0.33 0.35 0.34 0.33 0.32 0.30 0.31 0.18 0.23 0.22 0.18 0.21 0.29 0.28 0.27 0.32 0.37 0.35 0.31 0.33 0.55 0.55 0.64 0.83 0.87 0.99 1.03 1.01 1.02 1.08 1.14 1.20 1.23 1.30 1.37 1.41 1.48 1.54 1.59 1.63 1.66 1.67 1.68 1.66 1.60 1.58 1.60 1.57 1.55 1.54 1.49 1.43 1.41 1.40 1.37 1.39 1.37 1.30 1.24 1.24 1.26 1.26 1.26 1.30 1.36 1.36 1.36 1.39 1.41 1.43 1.49 1.56 1.61 1.62 1.62 1.66 1.65 1.63 1.61 1.63 1.67 1.69 1.68
0.28 0.27 0.33 0.32 0.30 0.36 0.37 0.35 0.34 0.32 0.31 0.28 0.18 0.20 0.30 0.36 0.34 0.28 0.23 0.28 0.27 0.22 0.33 0.51 0.46 0.53 0.54 0.49 0.91 0.95 0.95 0.99 1.06 1.11 1.18 1.24 1.29 1.29 1.36 1.46 1.52 1.56 1.61 1.68 1.73 1.76 1.76 1.71 1.65 1.63 1.64 1.63 1.60 1.57 1.54 1.52 1.51 1.48 1.46 1.45 1.41 1.36 1.23 1.22 1.25 1.24 1.26 1.27 1.30 1.33 1.36 1.40 1.41 1.42 1.49 1.62 1.65 1.65 1.61 1.61 1.62 1.62 1.60 1.58 1.64 1.69
0.36 0.27 0.31 0.35 0.36 0.36 0.37 0.35 0.33 0.36 0.35 0.29 0.25 0.30 0.21 0.21 0.20 0.28 0.29 0.23 0.21 0.21 0.30 0.45 0.54 0.56 0.59 0.59 0.80 0.83 0.89 0.96 1.05 1.12 1.14 1.17 1.24 1.29 1.36 1.45 1.55 1.60 1.65 1.66 1.68 1.73 1.77 1.78 1.75 1.70 1.68 1.70 1.69 1.67 1.65 1.64 1.64 1.61 1.56 1.54 1.52 1.47 1.42 1.32 1.27 1.27 1.28 1.28 1.26 1.29 1.33 1.37 1.41 1.43 1.45 1.55 1.65 1.65 1.59 1.56 1.57 1.57 1.58 1.58 1.59 1.61
0.39 0.29 0.30 0.37 0.36 0.37 0.36 0.33 0.26 0.29 0.34 0.36 0.35 0.27 0.29 0.26 0.22 0.24 0.28 0.32 0.29 0.23 0.26 0.32 0.46 0.43 0.63 0.69 0.85 0.86 0.94 1.00 1.07 1.10 1.12 1.19 1.25 1.30 1.35 1.42 1.53 1.60 1.62 1.65 1.69 1.75 1.81 1.85 1.86 1.81 1.74 1.72 1.73 1.74 1.74 1.72 1.72 1.69 1.68 1.65 1.60 1.59 1.57 1.50 1.40 1.33 1.26 1.29 1.28 1.27 1.30 1.37 1.43 1.46 1.45 1.48 1.55 1.57 1.55 1.56 1.56 1.56 1.55 1.54 1.55 1.53
0.37 0.39 0.28 0.35 0.40 0.37 0.29 0.32 0.30 0.31 0.28 0.28 0.28 0.27 0.25 0.25 0.35 0.31 0.35 0.30 0.29 0.30 0.26 0.25 0.28 0.39 0.63 0.86 0.90 0.93 0.99 1.05 1.09 1.09 1.14 1.20 1.27 1.34 1.39 1.43 1.50 1.61 1.68 1.72 1.76 1.80 1.85 1.86 1.89 1.93 1.92 1.85 1.83 1.83 1.83 1.81 1.76 1.76 1.77 1.73 1.72 1.64 1.59 1.51 1.49 1.44 1.34 1.31 1.30 1.29 1.25 1.25 1.33 1.41 1.46 1.45 1.49 1.52 1.53 1.55 1.57 1.57 1.57 1.57 1.48 1.48
0.38 0.36 0.32 0.36 0.34 0.32 0.34 0.38 0.38 0.37 0.35 0.32 0.30 0.28 0.28 0.23 0.23 0.21 0.23 0.37 0.40 0.35 0.32 0.28 0.24 0.41 0.67 0.91 0.94 0.98 1.05 1.08 1.14 1.15 1.16 1.22 1.28 1.35 1.42 1.48 1.53 1.57 1.68 1.75 1.81 1.84 1.84 1.84 1.86 1.96 1.98 1.94 1.87 1.83 1.81 1.83 1.84 1.83 1.80 1.80 1.79 1.77 1.70 1.61 1.56 1.55 1.52 1.43 1.35 1.30 1.29 1.27 1.28 1.33 1.41 1.43 1.45 1.47 1.51 1.52 1.52 1.56 1.56 1.49 1.48 1.45
0.44 0.41 0.38 0.34 0.35 0.36 0.38 0.42 0.43 0.44 0.41 0.36 0.32 0.29 0.31 0.29 0.27 0.24 0.20 0.27 0.38 0.41 0.47 0.42 0.32 0.38 0.77 0.90 0.93 1.00 1.08 1.13 1.19 1.23 1.21 1.26 1.32 1.39 1.47 1.54 1.59 1.63 1.65 1.70 1.75 1.80 1.84 1.85 1.89 1.90 1.90 1.90 1.88 1.88 1.87 1.86 1.85 1.85 1.87 1.87 1.87 1.85 1.84 1.78 1.70 1.68 1.68 1.62 1.52 1.40 1.35 1.33 1.28 1.27 1.28 1.31 1.38 1.43 1.48 1.51 1.50 1.53 1.49 1.47 1.46 1.46
0.51 0.38 0.34 0.38 0.41 0.42 0.43 0.46 0.45 0.44 0.40 0.36 0.35 0.34 0.30 0.27 0.28 0.27 0.27 0.34 0.33 0.40 0.35 0.36 0.29 0.42 0.77 0.98 1.00 1.03 1.12 1.17 1.23 1.26 1.24 1.28 1.34 1.40 1.45 1.51 1.56 1.58 1.64 1.70 1.72 1.74 1.77 1.83 1.93 1.90 1.91 1.90 1.92 1.93 1.94 1.95 1.95 1.93 1.91 1.92 1.94 1.92 1.94 1.93 1.89 1.84 1.80 1.75 1.67 1.60 1.49 1.38 1.34 1.29 1.24 1.20 1.25 1.33 1.44 1.50 1.50 1.51 1.48 1.48 1.49 1.44
0.34 0.39 0.38 0.34 0.34 0.35 0.37 0.40 0.39 0.41 0.40 0.36 0.34 0.34 0.33 0.32 0.30 0.32 0.34 0.43 0.32 0.38 0.37 0.30 0.24 0.36 0.71 0.95 1.03 1.05 1.07 1.10 1.14 1.22 1.28 1.26 1.33 1.37 1.39 1.44 1.50 1.52 1.55 1.61 1.67 1.70 1.73 1.77 1.80 1.84 1.87 1.88 1.89 1.94 2.01 2.05 2.07 2.03 2.01 2.00 1.98 1.99 2.06 2.05 2.08 2.02 1.95 1.88 1.80 1.73 1.62 1.51 1.42 1.33 1.27 1.21 1.19 1.21 1.32 1.43 1.48 1.49 1.46 1.46 1.44 1.46
0.38 0.40 0.39 0.32 0.30 0.28 0.26 0.28 0.30 0.32 0.34 0.37 0.37 0.35 0.35 0.32 0.31 0.30 0.25 0.31 0.25 0.38 0.41 0.32 0.32 0.51 0.74 0.89 0.95 1.00 1.03 1.04 1.11 1.15 1.23 1.28 1.30 1.32 1.35 1.37 1.43 1.50 1.52 1.54 1.57 1.59 1.63 1.66 1.71 1.76 1.86 1.91 1.96 1.97 1.96 1.98 1.99 1.99 1.99 1.99 2.02 2.02 2.05 2.10 2.15 2.16 2.11 2.05 1.94 1.85 1.74 1.63 1.53 1.42 1.33 1.27 1.23 1.20 1.23 1.30 1.37 1.43 1.44 1.44 1.41 1.43
0.39 0.43 0.42 0.41 0.39 0.36 0.36 0.37 0.41 0.43 0.39 0.32 0.33 0.36 0.37 0.37 0.37 0.36 0.36 0.29 0.24 0.34 0.35 0.39 0.40 0.48 0.56 0.71 0.83 0.93 0.97 0.97 1.01 1.06 1.09 1.14 1.22 1.29 1.34 1.37 1.39 1.44 1.50 1.52 1.52 1.54 1.60 1.61 1.62 1.70 1.80 1.88 1.93 1.94 1.94 1.93 1.94 1.97 2.02 2.07 2.14 2.16 2.16 2.16 2.17 2.15 2.14 2.15 2.09 2.01 1.91 1.78 1.63 1.53 1.45 1.37 1.32 1.30 1.26 1.25 1.28 1.32 1.34 1.38 1.38 1.37
0.38 0.36 0.42 0.43 0.45 0.47 0.47 0.44 0.43 0.41 0.37 0.37 0.36 0.35 0.41 0.42 0.39 0.34 0.29 0.27 0.35 0.34 0.29 0.44 0.51 0.43 0.50 0.64 0.75 0.85 0.94 0.99 1.03 1.06 1.08 1.12 1.17 1.21 1.27 1.33 1.37 1.39 1.44 1.49 1.51 1.53 1.55 1.61 1.67 1.72 1.79 1.84 1.86 1.88 1.92 1.97 1.97 1.97 2.00 2.00 2.04 2.10 2.13 2.13 2.14 2.12 2.12 2.14 2.14 2.08 2.02 1.93 1.79 1.67 1.58 1.52 1.45 1.39 1.35 1.29 1.25 1.25 1.31 1.34 1.32 1.30
0.34 0.33 0.41 0.44 0.44 0.49 0.50 0.48 0.46 0.42 0.40 0.41 0.40 0.40 0.39 0.43 0.42 0.32 0.32 0.35 0.37 0.29 0.26 0.40 0.52 0.47 0.55 0.66 0.76 0.82 0.91 0.97 1.02 1.06 1.10 1.14 1.16 1.17 1.19 1.22 1.26 1.31 1.37 1.44 1.49 1.50 1.53 1.60 1.67 1.70 1.77 1.83 1.86 1.85 1.88 1.93 1.96 2.00 2.01 2.05 2.08 2.09 2.10 2.14 2.13 2.14 2.16 2.14 2.12 2.10 2.11 2.10 2.01 1.87 1.76 1.66 1.55 1.47 1.44 1.40 1.33 1.28 1.27 1.29 1.29 1.30
0.32 0.33 0.40 0.43 0.42 0.46 0.48 0.49 0.48 0.44 0.40 0.41 0.41 0.44 0.48 0.46 0.46 0.42 0.41 0.44 0.42 0.39 0.41 0.46 0.53 0.54 0.65 0.72 0.79 0.88 0.99 1.02 1.04 1.09 1.09 1.07 1.07 1.09 1.11 1.15 1.20 1.25 1.31 1.36 1.43 1.47 1.50 1.55 1.61 1.65 1.71 1.77 1.81 1.82 1.83 1.88 1.92 1.97 1.98 2.00 2.05 2.06 2.10 2.13 2.10 2.11 2.13 2.15 2.16 2.15 2.18 2.15 2.11 1.97 1.88 1.77 1.64 1.57 1.54 1.52 1.49 1.40 1.32 1.29 1.32 1.36
0.30 0.28 0.37 0.40 0.39 0.41 0.46 0.47 0.49 0.46 0.42 0.38 0.41 0.48 0.54 0.53 0.51 0.53 0.50 0.50 0.51 0.50 0.51 0.51 0.51 0.54 0.75 0.86 0.87 0.96 1.00 1.04 1.03 1.00 1.01 1.05 1.07 1.07 1.08 1.12 1.19 1.25 1.30 1.33 1.37 1.44 1.49 1.53 1.55 1.56 1.60 1.69 1.76 1.77 1.78 1.84 1.90 1.92 1.93 1.96 1.97 2.01 2.11 2.11 2.07 2.10 2.13 2.13 2.18 2.24 2.22 2.18 2.12 2.06 2.00 1.95 1.85 1.73 1.64 1.58 1.57 1.55 1.51 1.45 1.39 1.33
0.33 0.28 0.34 0.36 0.34 0.36 0.43 0.45 0.47 0.50 0.45 0.42 0.39 0.47 0.53 0.52 0.48 0.54 0.48 0.54 0.48 0.44 0.53 0.53 0.48 0.50 0.73 0.88 0.90 0.95 0.96 0.96 0.95 0.98 1.00 1.02 1.06 1.08 1.07 1.11 1.18 1.27 1.31 1.32 1.33 1.37 1.42 1.45 1.49 1.51 1.52 1.56 1.64 1.72 1.76 1.79 1.81 1.82 1.86 1.91 1.93 2.01 2.11 2.10 2.07 2.04 2.09 2.12 2.13 2.14 2.14 2.19 2.16 2.11 2.08 2.05 2.01 1.93 1.86 1.81 1.72 1.62 1.55 1.50 1.46 1.42
0.34 0.29 0.27 0.30 0.29 0.32 0.40 0.45 0.44 0.46 0.46 0.42 0.42 0.52 0.59 0.59 0.64 0.68 0.68 0.69 0.61 0.62 0.48 0.43 0.44 0.65 0.76 0.85 0.81 0.87 0.93 0.95 0.97 0.99 1.00 1.03 1.06 1.08 1.07 1.10 1.18 1.28 1.35 1.38 1.35 1.35 1.37 1.37 1.41 1.46 1.52 1.54 1.57 1.63 1.70 1.75 1.75 1.75 1.83 1.88 1.91 1.97 1.96 1.97 2.01 2.03 2.03 2.08 2.15 2.16 2.16 2.15 2.16 2.17 2.16 2.13 2.10 2.07 2.02 1.96 1.88 1.78 1.66 1.55 1.51 1.47
0.38 0.31 0.27 0.32 0.25 0.29 0.36 0.40 0.42 0.41 0.34 0.36 0.59 0.68 0.67 0.62 0.67 0.61 0.61 0.64 0.68 0.66 0.59 0.69 0.76 0.85 0.85 0.85 0.82 0.84 0.89 0.93 0.96 1.02 1.07 1.02 0.99 1.03 1.06 1.11 1.17 1.24 1.30 1.40 1.40 1.37 1.42 1.42 1.36 1.41 1.46 1.49 1.52 1.55 1.60 1.63 1.64 1.69 1.75 1.82 1.90 1.92 1.92 1.90 1.88 1.92 1.97 2.04 2.06 2.10 2.16 2.18 2.17 2.15 2.17 2.18 2.17 2.14 2.09 2.03 1.96 1.90 1.82 1.75 1.64 1.50
0.34 0.34 0.29 0.32 0.26 0.27 0.35 0.36 0.31 0.29 0.32 0.47 0.59 0.63 0.66 0.78 0.76 0.67 0.67 0.71 0.72 0.75 0.73 0.72 0.77 0.82 0.86 0.90 0.92 0.96 0.96 0.98 1.00 0.99 1.01 1.05 1.04 1.02 1.03 1.09 1.13 1.17 1.25 1.34 1.39 1.41 1.43 1.42 1.33 1.31 1.34 1.37 1.39 1.43 1.47 1.51 1.56 1.57 1.60 1.68 1.73 1.78 1.80 1.82 1.82 1.84 1.87 1.90 1.96 2.01 2.11 2.11 2.07 2.05 2.08 2.09 2.13 2.15 2.10 2.05 2.00 1.96 1.94 1.88 1.79 1.68
0.31 0.33 0.32 0.30 0.30 0.31 0.30 0.32 0.23 0.26 0.38 0.50 0.54 0.54 0.64 0.70 0.72 0.73 0.66 0.74 0.77 0.78 0.80 0.75 0.80 0.84 0.86 0.89 0.94 0.97 0.95 0.95 0.96 0.96 0.97 0.99 1.01 1.00 0.99 1.02 1.08 1.14 1.19 1.27 1.32 1.37 1.40 1.38 1.32 1.26 1.24 1.29 1.28 1.29 1.33 1.37 1.42 1.44 1.48 1.58 1.61 1.63 1.64 1.67 1.66 1.67 1.71 1.76 1.83 1.88 1.95 2.01 2.02 1.98 1.97 2.00 2.04 2.06 2.06 2.03 2.00 1.99 2.03 2.02 1.97 1.91
0.31 0.36 0.34 0.28 0.34 0.23 0.26 0.28 0.28 0.40 0.38 0.43 0.45 0.46 0.49 0.52 0.59 0.59 0.52 0.63 0.81 0.87 0.85 0.82 0.83 0.87 0.90 0.94 0.94 0.93 0.94 0.92 0.85 0.85 0.92 0.94 0.96 1.00 1.01 1.03 1.07 1.11 1.16 1.22 1.27 1.29 1.33 1.34 1.32 1.28 1.23 1.21 1.25 1.25 1.24 1.24 1.28 1.31 1.34 1.39 1.47 1.51 1.55 1.56 1.56 1.57 1.61 1.70 1.72 1.75 1.81 1.86 1.88 1.93 1.95 1.97 1.98 2.02 2.02 1.98 1.96 1.99 2.05 2.04 2.07 2.02
0.30 0.26 0.35 0.29 0.29 0.31 0.24 0.24 0.26 0.27 0.24 0.34 0.44 0.52 0.57 0.59 0.66 0.67 0.65 0.59 0.78 0.83 0.93 0.90 0.87 0.90 0.91 0.94 0.93 0.93 0.92 0.80 0.71 0.75 0.84 0.88 0.92 0.96 1.02 1.04 1.07 1.10 1.12 1.15 1.19 1.22 1.23 1.21 1.21 1.21 1.18 1.17 1.18 1.20 1.20 1.15 1.09 1.12 1.17 1.22 1.27 1.29 1.32 1.38 1.47 1.52 1.53 1.58 1.62 1.63 1.65 1.67 1.68 1.68 1.73 1.81 1.89 1.94 1.98 2.00 1.99 1.95 1.99 2.01 2.06 2.07
0.31 0.27 0.28 0.30 0.31 0.29 0.26 0.23 0.22 0.21 0.27 0.40 0.42 0.46 0.54 0.63 0.67 0.72 0.56 0.46 0.69 0.80 0.88 0.93 0.93 1.00 0.99 0.96 0.95 0.94 0.83 0.69 0.70 0.75 0.84 0.87 0.87 0.91 0.93 0.99 1.03 1.06 1.08 1.09 1.09 1.11 1.12 1.12 1.11 1.11 1.11 1.10 1.07 1.11 1.11 1.08 1.04 0.98 0.98 1.04 1.08 1.12 1.13 1.18 1.26 1.30 1.35 1.44 1.51 1.54 1.55 1.55 1.56 1.59 1.62 1.65 1.69 1.84 1.88 1.92 1.99 1.99 1.98 1.98 2.00 2.03
0.27 0.23 0.19 0.22 0.27 0.29 0.28 0.25 0.23 0.26 0.30 0.40 0.45 0.47 0.54 0.65 0.66 0.54 0.38 0.39 0.62 0.75 0.83 0.89 0.91 0.95 1.02 1.05 1.01 0.92 0.82 0.70 0.72 0.79 0.91 0.92 0.92 0.92 0.90 0.93 0.97 0.99 1.01 1.04 1.06 1.07 1.07 1.08 1.06 1.05 1.03 1.02 1.02 1.06 1.04 1.02 0.99 0.97 0.95 0.96 0.98 0.96 0.98 1.03 1.09 1.16 1.21 1.25 1.28 1.33 1.45 1.50 1.49 1.52 1.57 1.60 1.60 1.70 1.78 1.84 1.86 1.90 1.92 1.95 2.00 2.01
0.25 0.23 0.19 0.14 0.21 0.27 0.27 0.26 0.30 0.32 0.42 0.45 0.45 0.50 0.54 0.61 0.55 0.40 0.34 0.48 0.72 0.78 0.82 0.87 0.88 0.92 0.98 1.00 0.97 0.86 0.90 0.94 0.92 0.94 0.98 0.98 0.96 0.93 0.95 0.97 0.98 1.00 0.99 0.98 0.97 0.99 0.98 0.99 0.98 0.95 0.96 0.98 1.00 0.99 0.98 0.95 0.91 0.89 0.89 0.88 0.86 0.87 0.91 0.96 1.00 1.04 1.06 1.09 1.11 1.13 1.16 1.25 1.30 1.35 1.42 1.45 1.46 1.56 1.63 1.68 1.73 1.77 1.80 1.84 1.94 2.01
0.21 0.24 0.22 0.19 0.15 0.18 0.25 0.24 0.26 0.32 0.45 0.50 0.50 0.52 0.58 0.49 0.36 0.35 0.50 0.61 0.66 0.69 0.81 0.87 0.86 0.89 0.93 0.94 0.97 0.97 0.98 1.00 0.97 0.96 0.94 0.91 0.95 1.01 1.00 0.96 0.97 0.99 1.00 0.99 0.96 0.93 0.90 0.91 0.92 0.93 0.95 0.98 0.99 0.99 0.97 0.93 0.90 0.88 0.87 0.83 0.81 0.84 0.89 0.87 0.85 0.87 0.90 0.93 0.98 1.00 1.01 1.03 1.09 1.13 1.19 1.24 1.29 1.30 1.34 1.42 1.51 1.58 1.71 1.80 1.84 1.86
0.20 0.18 0.19 0.17 0.21 0.18 0.20 0.21 0.23 0.21 0.45 0.56 0.54 0.48 0.53 0.39 0.43 0.51 0.55 0.61 0.72 0.70 0.73 0.79 0.85 0.91 0.90 0.86 0.90 0.92 0.94 0.92 0.89 0.83 0.80 0.85 0.93 1.00 0.99 0.98 0.95 0.93 0.92 0.92 0.90 0.90 0.87 0.84 0.84 0.85 0.86 0.89 0.90 0.91 0.93 0.91 0.88 0.89 0.88 0.84 0.86 0.89 0.89 0.86 0.82 0.80 0.79 0.79 0.81 0.85 0.90 0.94 0.97 1.02 1.06 1.08 1.14 1.17 1.20 1.28 1.34 1.40 1.47 1.50 1.57 1.62
0.35 0.19 0.23 0.24 0.28 0.18 0.15 0.13 0.18 0.34 0.49 0.59 0.55 0.42 0.50 0.52 0.57 0.58 0.56 0.57 0.72 0.77 0.77 0.80 0.86 0.88 0.89 0.84 0.83 0.85 0.88 0.89 0.87 0.90 0.86 0.86 0.93 0.95 1.00 0.99 0.98 0.97 0.96 0.96 0.93 0.90 0.88 0.85 0.84 0.81 0.80 0.77 0.75 0.74 0.74 0.74 0.75 0.81 0.83 0.85 0.93 0.92 0.89 0.86 0.82 0.79 0.76 0.75 0.76 0.78 0.80 0.84 0.88 0.93 0.98 1.01 1.05 1.08 1.13 1.16 1.20 1.25 1.31 1.39 1.43 1.44
0.38 0.29 0.34 0.24 0.34 0.27 0.24 0.26 0.35 0.45 0.50 0.58 0.59 0.58 0.60 0.63 0.63 0.62 0.61 0.64 0.68 0.76 0.85 0.82 0.84 0.88 0.88 0.87 0.88 0.90 0.88 0.85 0.80 0.83 0.83 0.87 0.92 0.94 0.95 0.99 0.98 0.95 0.95 0.95 0.94 0.94 0.91 0.85 0.79 0.74 0.71 0.72 0.71 0.70 0.68 0.68 0.67 0.69 0.72 0.82 0.91 0.92 0.90 0.87 0.83 0.79 0.75 0.74 0.74 0.74 0.77 0.80 0.81 0.84 0.87 0.90 0.93 0.94 0.99 1.05 1.11 1.10 1.14 1.18 1.22 1.25
0.45 0.46 0.47 0.38 0.33 0.37 0.39 0.40 0.46 0.45 0.48 0.50 0.55 0.59 0.58 0.60 0.64 0.65 0.63 0.62 0.71 0.81 0.88 0.84 0.87 0.88 0.88 0.90 0.88 0.89 0.88 0.89 0.85 0.84 0.86 0.88 0.90 0.94 0.97 0.98 0.98 0.97 0.96 0.94 0.94 0.94 0.93 0.88 0.82 0.76 0.71 0.69 0.70 0.68 0.67 0.67 0.68 0.66 0.72 0.80 0.83 0.87 0.89 0.87 0.83 0.79 0.76 0.74 0.73 0.73 0.74 0.73 0.75 0.76 0.79 0.82 0.85 0.86 0.89 0.90 0.95 0.97 1.00 1.02 1.05 1.08
0.46 0.48 0.43 0.35 0.41 0.33 0.28 0.44 0.42 0.43 0.47 0.49 0.49 0.52 0.56 0.58 0.60 0.64 0.64 0.65 0.69 0.74 0.85 0.93 0.92 0.90 0.90 0.90 0.87 0.87 0.86 0.87 0.84 0.85 0.87 0.87 0.87 0.89 0.91 0.92 0.91 0.90 0.89 0.89 0.90 0.88 0.85 0.85 0.83 0.81 0.78 0.72 0.72 0.70 0.67 0.65 0.67 0.71 0.75 0.77 0.81 0.83 0.85 0.84 0.83 0.80 0.78 0.76 0.75 0.74 0.72 0.69 0.69 0.69 0.71 0.74 0.77 0.80 0.82 0.85 0.86 0.87 0.88 0.90 0.91 0.93
0.40 0.56 0.42 0.43 0.40 0.35 0.35 0.44 0.49 0.53 0.52 0.53 0.52 0.51 0.50 0.52 0.54 0.57 0.61 0.65 0.69 0.74 0.79 0.87 0.93 0.94 0.93 0.90 0.90 0.86 0.87 0.89 0.87 0.87 0.85 0.85 0.85 0.85 0.85 0.85 0.86 0.88 0.90 0.89 0.88 0.85 0.82 0.79 0.76 0.75 0.75 0.75 0.76 0.73 0.69 0.67 0.67 0.68 0.70 0.72 0.75 0.77 0.78 0.78 0.78 0.76 0.76 0.77 0.77 0.77 0.75 0.71 0.70 0.68 0.66 0.66 0.67 0.69 0.73 0.76 0.79 0.79 0.80 0.81 0.82 0.81
0.52 0.54 0.40 0.47 0.42 0.46 0.49 0.51 0.53 0.55 0.55 0.55 0.56 0.56 0.56 0.56 0.55 0.56 0.58 0.58 0.61 0.64 0.72 0.81 0.88 0.88 0.89 0.91 0.94 0.93 0.88 0.90 0.90 0.89 0.87 0.85 0.84 0.84 0.84 0.85 0.87 0.88 0.88 0.85 0.84 0.81 0.76 0.75 0.72 0.70 0.69 0.69 0.71 0.69 0.67 0.67 0.68 0.69 0.69 0.70 0.72 0.72 0.70 0.71 0.72 0.73 0.73 0.74 0.74 0.74 0.75 0.73 0.72 0.70 0.68 0.65 0.64 0.65 0.66 0.67 0.71 0.75 0.77 0.80 0.84 0.82
0.49 0.42 0.50 0.47 0.40 0.39 0.39 0.45 0.52 0.42 0.43 0.52 0.58 0.60 0.61 0.61 0.58 0.56 0.57 0.56 0.58 0.58 0.60 0.65 0.74 0.83 0.86 0.89 0.91 0.90 0.87 0.92 0.90 0.90 0.89 0.90 0.88 0.91 0.91 0.90 0.88 0.86 0.84 0.84 0.82 0.79 0.75 0.73 0.68 0.64 0.63 0.64 0.66 0.65 0.63 0.63 0.65 0.67 0.68 0.70 0.70 0.70 0.66 0.66 0.66 0.66 0.67 0.69 0.68 0.69 0.68 0.68 0.68 0.69 0.68 0.66 0.63 0.61 0.62 0.68 0.67 0.67 0.67 0.73 0.81 0.83
0.47 0.51 0.49 0.43 0.41 0.41 0.51 0.56 0.59 0.57 0.56 0.58 0.62 0.66 0.68 0.69 0.65 0.60 0.57 0.56 0.56 0.58 0.60 0.61 0.61 0.63 0.67 0.74 0.80 0.80 0.81 0.82 0.85 0.89 0.87 0.87 0.90 0.92 0.92 0.90 0.87 0.85 0.82 0.81 0.78 0.75 0.72 0.67 0.64 0.62 0.60 0.61 0.62 0.60 0.59 0.58 0.60 0.61 0.63 0.64 0.65 0.64 0.61 0.61 0.59 0.60 0.62 0.64 0.64 0.66 0.65 0.64 0.63 0.63 0.62 0.63 0.62 0.61 0.57 0.55 0.59 0.63 0.64 0.63 0.64 0.70
Wind_Speed
23 22 22 22 21 20 20 19 18 16 14 14 14 13 13 12 11 11 10 11 13 12 11 12 11 10 10 11 12 13 13 16 17 16 17 18 18 18 18 17 17 17 16 16 16 16 17 16 16 15 14 14 13 13 13 13 12 12 12 11 11 10 11 10 10 10 10 10 9 9 9 9 10 10 10 9 9 10 10 10 10 10 10 10 10 10
22 23 23 22 22 21 20 20 19 16 14 13 14 14 14 13 12 11 10 12 12 11 11 12 11 11 11 11 11 13 14 16 18 18 18 18 18 18 18 18 18 17 16 16 16 16 17 17 16 15 15 14 14 14 13 13 13 13 12 12 11 11 11 11 11 11 11 10 10 9 9 9 9 10 9 9 9 10 10 10 10 9 9 9 9 9
22 23 23 22 22 21 20 20 19 17 16 15 14 15 14 14 13 10 9 11 11 11 12 12 12 11 12 11 11 13 14 16 18 18 18 19 18 18 19 19 18 17 16 17 17 17 17 17 17 16 15 15 14 14 14 14 13 13 12 12 11 11 11 12 11 11 11 11 10 9 9 9 9 9 9 9 9 10 10 10 10 9 9 9 9 9
22 21 22 22 22 22 21 20 20 18 17 16 15 15 15 14 13 11 10 10 10 10 12 12 11 11 12 12 12 13 14 15 17 18 19 19 18 18 19 19 19 18 17 17 17 17 17 18 17 16 16 15 14 14 14 14 14 13 13 13 12 12 12 12 12 12 11 11 11 10 9 9 9 8 9 9 9 9 9 9 9 9 9 9 9 9
23 21 21 21 21 22 22 21 21 20 19 18 17 17 16 15 14 12 11 10 9 10 12 12 10 11 13 13 12 13 15 15 16 17 19 20 19 17 18 18 19 19 18 18 18 17 18 18 18 17 16 16 15 15 15 15 14 13 13 13 13 13 12 12 13 12 12 12 11 10 9 9 8 8 8 8 8 9 9 9 9 9 9 9 9 9
22 22 20 20 21 22 22 23 22 22 21 19 19 19 18 16 14 13 12 10 10 11 13 13 11 11 13 14 13 12 14 16 16 18 20 21 21 19 18 19 19 19 19 18 18 18 18 19 18 17 16 16 16 16 16 15 15 14 14 14 13 13 13 13 13 13 13 12 12 11 10 9 9 9 8 9 8 9 9 8 9 9 9 9 9 8
22 22 20 21 21 21 22 23 23 22 21 20 20 20 19 17 15 14 13 11 11 12 14 15 13 11 12 13 14 13 13 15 16 19 21 22 22 20 20 20 19 20 19 18 18 18 19 19 18 18 17 17 16 16 16 16 15 15 14 14 14 13 13 14 14 13 13 13 12 11 10 10 10 9 9 8 8 8 8 8 8 8 9 9 9 8
21 21 20 20 21 22 22 22 23 23 21 21 20 19 19 18 16 16 15 13 13 12 13 15 14 11 11 12 14 14 14 14 16 19 21 22 23 22 22 21 20 21 20 19 19 19 19 19 19 18 18 17 17 16 16 16 15 15 15 15 14 14 14 14 14 14 13 13 13 12 11 10 10 9 9 8 8 8 7 8 8 8 8 9 9 9
20 22 22 21 22 22 22 22 23 23 22 22 21 19 19 19 18 17 15 14 14 13 13 15 14 12 12 12 12 13 14 15 16 18 20 23 24 23 23 22 21 21 21 20 20 20 20 20 19 19 18 18 17 17 17 17 16 16 16 16 15 15 14 14 14 14 14 13 13 13 12 11 10 9 8 8 8 8 7 8 8 8 8 8 9 9
20 22 23 22 22 23 23 22 22 23 22 22 22 20 18 17 17 15 15 15 15 14 15 16 16 13 12 12 13 14 14 15 16 16 18 21 25 25 24 23 22 21 21 21 20 21 21 20 20 19 18 18 18 17 17 17 17 16 16 16 16 15 15 14 15 15 15 14 14 14 13 12 11 10 9 8 8 8 8 8 8 8 8 8 8 8
21 21 22 22 22 23 23 22 22 23 23 21 20 20 17 16 16 15 15 16 15 15 16 17 17 15 12 12 14 14 13 12 13 15 16 20 24 26 25 24 23 22 22 21 21 21 21 21 20 20 19 19 18 17 17 17 17 16 16 16 16 16 15 15 15 15 15 15 15 14 14 13 12 12 10 10 9 8 8 8 8 8 8 8 8 8
20 20 21 22 22 22 21 21 21 21 22 21 21 20 19 17 16 15 16 17 16 16 16 17 18 16 14 13 13 14 12 11 12 14 16 19 23 25 25 24 24 23 22 22 21 21 21 21 21 20 20 20 19 18 18 18 18 17 16 16 16 17 16 16 16 15 15 15 15 15 14 14 13 13 12 11 10 9 9 9 8 8 8 8 8 7
20 22 21 20 21 21 21 20 19 19 20 22 22 21 20 18 17 17 17 17 17 16 14 15 16 16 16 15 14 14 13 12 12 13 15 19 22 24 25 25 24 24 23 22 21 21 21 21 21 21 21 20 20 19 19 18 18 17 17 17 17 17 17 16 16 16 16 16 16 15 15 14 14 13 13 12 11 10 10 9 9 9 8 8 8 8
19 20 20 19 20 21 21 21 21 20 21 23 24 24 22 19 17 18 18 16 16 16 14 14 15 15 16 15 14 15 15 15 14 14 16 18 21 23 25 25 25 24 24 22 21 21 22 22 22 22 21 21 21 20 19 19 18 18 17 17 17 17 17 17 17 17 16 16 16 16 16 15 14 14 13 12 11 11 10 10 9 9 8 8 8 8
18 19 20 20 19 20 21 22 22 20 21 22 23 23 23 21 19 18 18 17 16 15 14 15 15 15 15 14 14 14 15 15 15 15 15 17 20 22 23 24 25 25 25 23 22 21 22 23 23 22 22 21 21 21 20 19 18 18 17 17 17 17 17 17 17 17 17 17 16 16 16 16 15 14 13 13 12 11 11 10 10 9 9 9 8 8
17 19 20 21 20 20 21 21 21 20 20 21 22 23 24 24 20 17 18 19 17 15 14 16 16 15 15 14 13 12 12 13 14 14 14 15 18 20 22 23 24 24 25 24 23 22 22 23 23 23 22 22 21 21 21 20 19 19 18 18 18 17 17 17 17 17 17 17 17 17 17 16 16 15 14 14 13 12 12 11 10 10 9 9 9 8
16 18 19 19 20 21 21 21 21 22 21 20 22 24 24 23 20 18 17 17 16 16 16 17 15 15 15 14 13 12 10 10 11 13 13 14 16 18 20 21 23 24 24 24 23 22 21 22 22 23 23 22 22 21 21 21 21 20 19 18 18 18 17 17 17 17 18 18 18 18 18 17 16 16 15 15 14 13 13 12 11 11 10 10 9 9
17 17 18 18 18 20 21 20 20 22 21 20 22 24 22 20 20 19 17 16 15 16 17 17 16 15 15 15 14 12 11 10 10 12 12 13 14 16 18 20 22 24 24 24 23 22 21 21 22 23 23 23 23 22 22 22 21 20 19 19 18 18 18 18 18 18 18 18 18 19 19 18 17 17 16 16 15 14 14 13 13 12 11 11 10 10
15 16 17 18 18 19 19 19 19 20 21 21 21 22 22 20 21 20 18 17 17 17 17 17 17 16 16 16 14 12 12 11 11 11 11 12 13 14 15 17 20 21 22 23 24 23 22 21 22 22 23 23 23 23 23 22 22 21 20 19 19 18 18 18 18 18 18 18 19 19 19 19 18 17 17 16 16 15 15 14 14 13 12 12 11 11
13 15 16 17 18 17 17 19 20 20 20 20 19 21 23 22 21 21 19 18 17 18 18 17 16 17 18 17 15 14 13 12 12 12 11 11 11 12 13 14 17 18 20 23 24 24 23 22 22 22 22 23 24 23 23 23 22 22 21 20 19 19 18 18 18 18 19 19 19 19 19 20 19 19 18 18 17 17 16 15 15 14 14 13 12 12
13 14 16 16 16 16 16 19 21 21 21 20 19 21 23 22 21 20 19 18 17 17 18 17 17 18 18 18 17 15 14 13 13 12 11 10 10 11 12 13 15 17 19 21 23 23 23 23 22 21 22 23 23 24 24 24 24 23 23 22 21 20 19 19 19 19 19 19 19 19 20 20 20 20 19 19 18 18 17 17 16 15 15 14 13 13
14 14 15 14 14 15 17 19 21 21 22 22 20 21 22 22 22 21 19 19 19 18 18 18 18 19 19 18 17 16 15 14 13 13 12 11 10 11 11 12 14 16 18 19 21 22 22 23 24 23 23 23 23 24 24 25 25 24 24 23 22 21 21 20 20 20 20 20 20 20 20 20 21 21 21 20 19 19 18 18 17 16 15 15 15 14
15 15 15 14 14 16 18 19 19 20 21 21 20 21 21 21 22 22 21 21 20 18 18 17 17 18 19 19 18 17 16 15 14 14 13 12 11 11 12 13 14 15 17 18 19 20 21 22 23 24 24 24 24 24 25 26 26 26 25 24 23 23 22 22 22 21 21 20 20 20 20 20 21 21 22 22 21 20 20 19 18 17 17 16 16 15
14 15 14 14 14 15 16 16 17 18 18 18 19 20 20 21 22 22 22 21 20 20 19 17 17 18 19 18 18 18 17 16 15 14 14 13 12 12 13 14 15 15 16 17 18 19 19 20 21 23 24 25 25 25 25 25 25 25 26 25 24 24 23 23 23 23 22 22 21 21 21 21 21 21 22 22 22 22 21 20 19 19 18 17 17 16
14 15 15 14 13 14 14 13 15 17 17 18 19 19 20 21 21 22 22 20 20 22 21 19 19 19 18 18 19 19 18 17 15 15 14 13 13 13 13 14 15 15 15 16 17 18 18 19 20 21 23 24 25 25 25 24 24 24 25 25 25 25 24 24 24 24 23 23 23 22 22 22 22 22 22 23 23 23 22 22 21 20 19 19 18 18
14 14 15 14 14 15 16 14 15 16 17 18 18 18 19 21 21 22 22 21 22 22 21 20 20 19 19 19 20 20 19 17 16 15 14 14 13 13 13 13 14 15 15 15 16 17 18 18 19 20 21 22 22 23 24 23 24 24 24 25 25 25 25 24 24 25 25 24 24 24 24 23 23 22 23 23 23 23 23 23 22 21 21 20 20 19
14 13 14 15 15 15 16 16 15 15 16 17 17 17 18 20 21 21 21 22 23 23 23 22 21 20 21 22 21 20 19 19 18 16 15 14 14 13 14 14 14 14 15 15 15 16 16 17 17 17 18 20 20 22 23 23 23 24 24 24 24 24 24 25 25 25 26 26 25 24 24 24 23 23 23 23 23 23 24 24 23 23 22 21 21 20
14 13 13 15 16 15 16 17 15 14 16 16 15 16 17 18 20 21 21 22 23 22 23 24 23 22 23 23 22 21 20 20 19 17 16 15 15 14 15 15 15 15 15 14 14 14 15 15 15 15 16 17 19 20 21 21 22 22 22 23 24 24 24 24 25 25 26 27 27 26 25 25 24 24 23 23 23 23 24 24 24 24 23 23 22 22
13 14 14 15 17 17 17 18 15 13 15 16 14 15 17 17 18 20 21 21 21 22 24 25 24 23 23 23 22 22 21 21 19 18 17 16 15 15 15 15 16 15 15 14 13 13 13 13 14 13 13 14 15 16 17 18 19 20 20 20 21 22 23 23 24 25 26 27 28 27 26 25 25 25 24 23 24 24 24 24 24 24 24 23 23 23
12 13 14 15 16 16 16 18 16 12 12 14 15 15 16 17 18 18 19 19 19 21 23 23 23 22 22 21 21 21 22 21 20 19 17 16 16 15 15 15 15 15 15 14 13 13 13 13 12 12 12 12 13 13 14 14 15 17 17 17 18 19 20 21 22 23 24 25 26 27 27 26 26 26 25 24 24 24 24 24 24 24 24 24 23 23
11 13 14 14 15 16 15 16 17 15 12 13 14 15 15 16 18 18 18 18 18 18 20 21 22 22 21 21 20 21 22 21 20 19 18 17 16 15 15 14 14 15 14 14 13 13 13 13 13 12 12 12 12 12 12 12 12 13 14 15 16 17 18 19 20 21 22 23 24 26 27 27 27 27 27 26 25 24 24 24 24 25 25 24 24 23
10 12 13 13 15 16 16 16 16 16 15 13 12 13 13 15 17 18 19 19 19 19 18 20 22 23 22 21 20 21 21 20 19 19 18 17 17 15 15 14 14 14 14 14 14 13 13 13 13 13 12 12 12 12 12 12 12 11 11 11 13 14 15 15 16 17 18 20 22 24 26 28 29 29 29 28 27 26 25 25 25 25 25 25 25 24
10 11 12 13 15 16 16 17 17 16 17 16 14 12 13 14 16 17 17 18 19 19 19 19 21 21 22 21 21 21 21 20 19 19 18 18 17 16 15 14 14 14 13 13 13 13 12 12 12 12 12 11 11 11 11 12 11 11 10 10 11 11 11 12 12 12 13 14 17 20 22 25 27 29 29 29 28 27 27 26 26 26 26 26 26 25
8 10 11 13 15 16 16 17 16 16 17 18 16 13 12 12 13 14 16 17 18 19 19 18 18 19 21 21 21 21 20 20 19 18 18 17 16 15 15 14 14 14 13 13 13 12 12 12 12 12 12 11 11 11 10 11 10 10 10 10 10 10 9 9 9 9 8 9 10 12 16 18 21 24 26 27 27 27 27 27 27 27 27 26 27 26
7 8 10 12 13 15 16 15 14 17 19 19 17 14 12 13 13 13 14 15 16 18 19 18 18 20 20 20 20 20 19 19 18 17 17 16 16 15 14 14 15 14 14 14 14 13 13 13 12 12 12 11 11 11 10 10 10 10 10 10 9 9 9 9 8 8 7 6 6 7 9 11 14 17 21 23 24 26 26 26 26 26 26 26 26 27
7 8 10 11 12 14 16 16 16 17 18 18 17 15 13 13 13 13 14 15 15 17 18 19 19 20 19 19 20 20 20 19 17 16 16 16 16 15 14 14 15 15 15 15 15 15 14 13 13 12 12 12 12 11 10 10 10 10 10 10 10 9 9 9 8 7 7 6 6 5 5 6 8 11 14 17 20 22 23 24 24 24 25 24 25 25
5 8 9 10 11 13 15 17 17 16 17 17 17 17 15 13 14 14 15 16 16 16 17 18 19 20 20 20 20 21 21 19 17 16 16 16 15 15 14 14 14 14 14 15 15 15 15 14 13 12 12 12 11 11 11 11 11 11 10 10 10 10 9 9 8 7 7 6 6 6 5 5 5 7 9 12 14 17 19 21 22 22 23 23 24 24
2 5 8 9 10 11 13 15 15 16 18 18 17 18 16 15 15 15 15 15 16 16 17 18 19 19 20 21 21 21 20 19 19 18 17 16 16 15 14 14 13 13 14 14 15 14 14 13 13 12 12 11 11 11 11 11 11 11 11 11 11 10 10 9 9 8 8 8 7 7 7 6 5 6 6 8 9 12 14 16 18 20 21 22 22 22
2 4 6 7 9 10 11 12 14 16 18 19 19 18 16 15 16 16 15 16 17 17 17 18 19 19 19 21 22 22 20 20 20 20 18 17 17 16 16 16 15 15 15 15 15 15 14 13 12 12 12 11 11 11 11 11 11 11 11 11 11 11 10 10 10 10 10 10 10 9 9 8 7 7 7 7 8 9 10 11 13 15 18 20 21 21
4 4 4 5 7 9 9 11 12 14 16 18 19 19 18 16 15 14 15 17 18 18 18 19 21 21 21 21 21 21 21 20 21 20 19 18 17 17 17 17 17 17 17 16 16 15 15 14 13 12 12 12 12 12 12 11 11 11 11 12 12 12 11 11 11 11 11 11 11 11 11 11 10 9 9 8 8 9 9 10 10 11 12 15 18 19
4 4 4 5 7 8 8 9 11 12 13 16 18 19 18 17 15 15 16 17 18 18 18 18 20 21 22 21 20 20 20 21 21 21 19 17 17 17 17 18 18 18 18 17 17 16 15 14 14 13 13 13 13 13 13 13 12 12 12 12 12 12 12 12 12 12 12 12 12 12 12 12 12 11 11 11 10 10 10 10 10 10 10 11 13 14
4 4 4 4 5 7 8 9 10 10 12 14 15 17 18 17 17 18 18 18 18 20 20 19 20 21 21 21 21 20 21 21 21 21 20 18 16 16 16 17 17 17 17 17 17 16 16 15 15 14 14 14 14 15 15 15 14 14 14 13 13 14 14 14 13 13 13 13 13 13 13 13 13 13 12 12 12 12 12 11 11 11 12 12 11 12
4 4 4 5 6 6 7 8 9 10 11 11 12 15 16 17 18 18 18 18 20 21 21 20 21 21 20 20 21 22 23 22 21 21 21 20 18 17 17 17 17 17 17 17 17 17 17 16 16 16 16 16 16 17 17 17 16 16 16 15 15 15 15 15 15 15 14 14 14 14 13 13 13 13 13 13 13 13 13 13 12 12 12 13 13 12
5 4 5 5 6 6 6 8 9 11 12 11 11 14 16 17 18 18 17 18 19 20 20 21 21 21 21 21 21 22 23 23 23 22 22 20 20 20 19 18 17 17 17 17 18 18 17 17 17 17 17 17 18 18 18 18 18 18 18 18 17 17 17 16 16 16 16 16 15 15 15 15 14 15 14 14 14 14 13 13 13 13 14 14 14 14
6 6 6 6 6 6 8 9 10 11 11 11 11 13 15 15 17 18 18 18 18 19 19 20 21 21 20 21 22 22 23 24 24 24 23 22 21 21 21 20 19 18 17 17 17 18 17 17 17 17 18 18 19 19 19 20 20 20 20 20 20 19 19 18 18 18 17 17 17 17 17 17 16 16 16 16 16 15 15 15 15 15 15 15 15 15
8 7 7 7 8 8 8 9 9 9 10 10 11 13 14 14 15 16 17 17 18 19 19 20 21 21 20 21 22 22 23 24 25 25 25 24 23 23 23 22 22 20 18 17 17 17 18 18 19 19 19 20 20 20 20 21 21 21 22 22 22 22 22 21 20 20 20 20 20 20 19 19 19 19 19 18 18 18 18 18 17 17 17 17 17 17
9 8 8 8 9 8 9 9 9 9 9 10 11 12 13 13 14 14 16 17 18 19 20 20 21 21 21 21 21 22 22 23 24 25 25 25 24 24 24 24 23 23 21 20 19 18 18 19 19 20 20 21 21 21 21 21 22 23 23 24 24 25 24 24 23 23 22 22 22 22 22 21 21 21 21 21 21 21 21 21 20 20 20 20 20 20
10 9 10 10 10 10 11 12 11 10 10 10 10 11 12 13 14 14 15 16 17 18 19 20 21 22 22 21 21 21 21 22 24 24 25 25 24 24 24 25 24 24 24 23 22 20 20 20 20 20 20 21 21 22 22 22 22 23 24 25 25 26 26 25 25 25 25 24 24 24 24 24 23 23 23 23 23 23 23 23 23 23 23 23 23 23
11 11 11 11 11 12 13 13 12 12 12 11 10 11 12 13 14 14 15 16 16 17 19 20 21 22 23 23 24 24 23 23 24 24 24 24 24 24 24 24 24 24 24 24 24 23 21 21 21 21 21 22 22 23 23 23 23 24 24 25 26 26 26 26 27 27 27 27 26 26 26 25 25 25 25 25 25 25 25 25 25 25 25 25 25 25
12 12 12 12 12 13 14 13 13 13 13 13 12 12 13 14 14 14 14 15 16 17 19 20 21 23 24 24 24 25 25 24 24 24 23 23 23 24 24 24 24 23 23 24 24 24 23 23 22 22 22 23 23 23 23 24 24 24 25 25 26 26 26 27 27 27 27 27 27 27 27 27 27 27 27 27 27 27 27 27 27 27 27 28 28 28
12 13 13 13 14 15 16 15 14 14 15 15 14 14 15 15 15 14 15 15 16 17 18 19 21 23 24 24 24 25 25 25 25 25 24 23 22 23 24 25 25 24 24 24 24 24 24 25 25 23 23 22 22 23 23 23 24 24 25 25 25 26 26 26 27 27 28 28 28 28 28 28 28 28 28 28 28 28 28 28 28 28 29 29 30 30
Wind_Direction
204 207 210 209 208 207 208 208 206 207 206 204 205 205 205 205 213 213 210 210 203 201 205 203 205 205 201 198 197 199 197 195 198 199 195 191 188 189 189 190 190 190 191 192 193 191 191 192 190 188 185 184 183 182 181 179 178 177 174 173 173 172 171 169 168 164 161 159 156 155 153 149 145 143 142 140 139 138 137 136 134 133 134 133 133 134
206 209 211 210 208 206 208 209 207 207 205 204 203 202 204 205 212 217 212 210 208 209 210 204 205 209 206 202 202 205 203 200 202 201 198 195 192 191 192 192 192 192 191 192 194 193 193 194 192 190 188 186 185 184 184 183 181 180 177 176 177 175 173 172 171 168 166 164 161 158 155 151 147 146 146 144 143 142 141 140 139 138 137 137 137 137
208 212 212 210 208 205 206 208 207 208 206 206 206 203 206 210 213 221 219 211 211 215 213 207 207 209 208 204 203 212 211 205 206 206 202 199 196 195 195 195 194 193 192 193 195 195 194 195 192 190 190 190 188 186 186 185 183 183 181 179 180 179 177 174 173 172 169 167 164 159 155 152 149 150 149 146 146 146 145 145 144 143 142 142 141 140
209 213 213 210 206 205 208 208 205 208 210 210 209 205 209 212 212 220 224 217 215 216 211 206 209 211 209 207 208 214 216 211 208 208 206 203 202 200 199 198 196 195 194 194 196 196 194 194 192 190 191 192 191 190 189 187 185 184 184 182 182 182 180 177 175 175 172 169 166 161 156 153 151 151 151 150 149 150 151 150 149 148 148 147 146 145
211 213 210 206 206 206 209 209 206 208 215 217 213 208 209 210 213 217 219 221 223 220 212 203 210 220 212 210 214 214 216 216 210 207 206 206 207 205 202 202 200 198 197 196 196 196 194 194 192 190 192 192 192 192 191 189 188 186 186 185 184 185 183 181 178 177 176 174 170 166 162 160 157 154 156 157 156 157 158 158 157 155 155 153 150 150
214 213 208 205 208 209 209 211 210 208 214 220 216 210 207 207 211 211 210 219 223 222 219 207 210 226 219 213 214 211 212 215 211 209 208 208 209 208 205 204 202 200 199 199 198 196 195 195 193 191 192 192 193 194 193 192 191 188 188 187 186 187 187 185 182 180 180 179 176 173 170 168 166 164 166 167 165 164 165 164 163 162 162 161 157 156
213 212 208 207 208 209 210 214 214 209 210 218 216 209 206 206 207 207 208 217 219 218 218 211 210 224 225 217 212 209 211 214 211 211 211 208 209 209 206 206 204 202 200 200 199 198 196 195 193 192 192 192 193 195 195 195 194 191 191 189 188 189 190 189 186 184 184 183 182 180 178 176 175 173 172 172 170 169 167 167 168 169 169 169 167 165
210 210 210 209 208 209 211 215 215 209 208 215 214 206 205 206 207 208 211 217 219 215 213 212 213 222 229 223 212 206 209 214 213 213 213 210 209 210 208 207 206 204 202 201 200 199 198 196 194 194 194 194 194 195 196 197 196 194 193 192 191 191 192 192 190 188 188 187 186 185 185 184 184 181 177 174 173 173 172 172 173 174 175 177 176 175
211 210 211 211 211 212 212 212 211 207 210 215 212 206 207 208 208 210 213 218 218 216 216 216 214 218 228 225 212 205 210 216 215 213 213 211 210 210 210 208 207 206 204 203 202 200 200 198 196 195 195 196 195 195 196 198 197 196 196 195 194 194 195 194 193 192 192 191 190 190 190 190 190 189 185 180 178 179 179 179 178 179 179 181 183 183
213 212 211 210 212 214 213 211 207 206 211 213 210 208 209 209 209 211 214 216 215 217 220 217 212 215 224 221 208 205 213 219 217 214 213 211 209 210 210 208 207 206 205 205 205 203 201 200 198 197 196 196 196 195 196 198 198 198 198 198 197 197 197 197 195 194 195 194 194 195 195 195 194 194 192 190 188 186 185 184 183 183 183 184 186 188
217 215 212 212 213 213 213 212 209 206 208 208 208 208 209 211 213 214 217 215 214 222 224 217 212 214 223 222 211 210 218 219 215 215 213 211 209 209 209 208 206 206 206 206 206 205 203 202 201 199 198 196 196 196 197 198 199 199 199 199 199 200 200 198 197 197 197 197 198 200 199 199 198 197 196 195 195 192 190 189 187 187 188 188 189 190
220 217 215 215 215 211 210 212 212 210 207 206 206 205 207 213 214 214 216 214 215 224 227 219 213 215 222 222 217 218 224 221 215 214 213 209 207 207 207 207 205 205 206 206 205 205 203 201 201 200 199 197 196 196 197 199 200 200 200 200 200 202 202 201 199 199 200 200 201 202 203 202 201 200 200 199 198 196 194 193 191 190 191 193 193 192
220 218 217 217 215 209 206 211 213 211 208 206 206 204 205 210 211 211 214 214 216 221 223 215 210 216 223 225 225 225 226 226 220 217 213 208 206 205 206 206 205 205 205 206 205 205 203 201 201 200 199 198 197 197 198 199 200 201 201 201 201 202 203 203 202 202 202 203 203 204 204 205 205 203 203 203 203 201 199 198 196 195 195 195 196 196
219 221 219 215 215 210 205 207 210 210 209 207 208 206 206 206 207 212 216 215 215 219 219 211 209 220 225 226 232 232 231 229 223 219 215 209 205 204 205 206 207 206 205 206 206 205 205 203 201 201 200 200 199 199 199 200 201 202 203 203 203 204 204 205 205 205 206 207 207 206 206 208 208 207 207 207 207 207 206 203 202 202 201 199 199 199
213 217 216 211 213 213 209 209 207 206 208 209 209 208 209 209 208 213 215 214 214 216 215 211 213 221 220 222 232 237 236 229 220 218 216 210 205 204 204 206 209 208 206 206 206 205 206 204 203 203 203 203 202 202 202 202 202 202 204 205 206 206 207 207 208 208 209 210 210 210 210 210 211 211 211 211 211 211 211 210 208 208 207 205 204 203
210 215 216 213 213 210 211 212 206 203 209 212 209 208 212 212 211 214 216 214 213 213 213 214 218 221 218 223 232 236 237 226 215 212 211 208 205 203 204 205 207 208 205 204 205 205 206 206 206 206 206 205 205 205 205 205 204 204 205 207 208 209 210 210 210 211 212 213 213 213 213 214 214 214 214 214 214 214 214 215 213 212 213 211 210 208
212 215 217 216 215 211 210 212 209 207 210 211 209 211 215 213 211 214 217 217 214 214 218 218 220 224 222 225 232 232 233 227 214 207 204 204 203 203 205 205 205 205 203 204 205 205 207 207 207 208 208 208 207 207 207 208 208 208 208 209 210 211 212 213 214 214 214 215 216 216 216 216 217 216 216 216 216 216 217 218 217 216 216 216 215 214
212 217 218 213 215 217 213 211 213 211 207 208 212 214 213 213 214 215 216 218 216 216 221 219 218 222 218 220 229 229 227 226 217 209 204 203 203 204 207 206 205 204 205 206 207 207 207 208 209 210 211 211 211 210 210 210 211 211 211 212 212 213 214 215 216 216 216 217 218 219 218 218 219 218 218 218 218 218 219 220 219 219 219 218 218 217
211 216 221 214 213 221 218 210 212 214 210 210 213 212 209 212 216 216 215 216 216 218 222 221 220 221 216 217 224 223 221 220 212 206 205 205 205 207 207 207 205 205 207 208 209 210 210 210 211 212 213 214 214 214 213 212 213 213 213 214 215 216 217 218 219 219 219 218 219 221 221 220 220 220 220 220 220 220 220 221 221 221 222 221 220 220
212 211 216 216 215 220 218 211 211 215 214 213 213 212 211 213 213 214 216 217 215 217 221 221 221 222 218 218 220 218 217 214 206 204 205 204 204 206 206 206 206 206 208 209 211 213 213 213 214 215 216 216 216 216 216 216 215 215 215 216 218 220 220 220 221 221 221 221 221 222 222 222 222 221 221 221 221 222 222 222 222 222 223 223 222 221
214 210 214 218 217 216 215 213 211 209 208 209 210 211 212 214 214 214 219 220 216 215 218 218 222 224 220 218 219 215 214 213 207 207 209 205 202 203 203 203 204 205 207 210 213 214 214 216 218 219 219 218 217 218 219 219 218 217 218 219 220 222 223 223 223 224 223 222 222 223 223 223 223 223 223 222 223 224 224 223 223 223 223 223 223 222
214 211 213 217 217 214 214 214 212 210 207 207 208 210 211 212 213 214 219 223 219 217 217 215 220 225 221 218 219 215 212 212 207 205 208 208 204 203 203 202 202 204 205 209 213 215 217 219 220 222 222 221 220 220 221 221 221 220 221 223 224 224 225 226 226 226 225 225 224 224 224 224 224 224 224 224 224 224 225 225 224 224 224 223 224 223
214 209 211 216 216 215 216 215 212 210 208 208 211 213 213 214 213 214 218 221 219 220 220 217 221 226 223 219 219 215 212 211 209 206 207 210 208 203 203 204 203 204 206 209 212 216 218 220 221 222 223 223 223 223 224 225 224 223 223 225 227 226 226 228 228 228 227 227 228 227 226 225 225 225 225 225 225 225 225 226 226 226 225 225 224 224
215 212 213 217 218 216 215 213 211 207 204 208 215 215 215 219 218 216 218 219 217 219 220 220 224 226 223 220 217 214 211 211 212 211 208 210 212 207 206 207 207 208 210 211 214 218 220 222 224 224 224 225 225 226 227 227 227 227 227 228 229 229 229 230 230 230 229 230 230 230 229 227 226 226 226 226 226 226 226 226 227 228 227 227 226 226
217 216 213 213 215 215 213 213 213 211 207 209 216 217 218 221 219 217 220 221 220 220 218 219 225 225 221 219 216 213 212 212 214 214 210 211 212 212 211 210 211 212 214 215 217 220 221 223 226 227 226 226 226 226 228 229 229 230 230 231 231 231 232 232 231 231 231 232 232 231 230 229 227 227 227 227 227 227 227 227 227 229 229 229 228 228
215 214 212 208 207 208 209 210 214 217 216 215 218 221 223 222 219 218 220 221 222 223 220 219 224 222 216 215 215 214 213 214 216 215 214 214 214 215 214 212 212 213 215 218 220 221 222 224 225 226 227 226 224 224 226 228 229 231 232 233 233 233 233 233 233 233 233 233 233 232 232 231 230 228 228 228 229 229 228 228 228 229 229 230 230 230
211 213 212 205 200 200 202 208 215 216 217 221 225 227 227 226 222 218 219 222 223 222 223 225 223 217 214 214 214 214 214 214 216 216 216 216 216 216 216 215 215 215 217 221 223 222 222 223 222 222 224 224 224 225 227 229 230 231 233 234 234 234 234 234 235 235 234 234 234 233 232 231 231 230 230 230 230 230 230 230 230 230 230 231 231 231
210 214 212 205 205 207 206 210 217 218 216 221 230 231 231 231 225 220 221 224 222 220 226 228 222 217 218 216 214 214 213 212 214 215 216 217 217 217 217 217 218 218 220 222 223 221 218 218 218 219 221 223 224 227 229 230 231 232 234 235 235 236 236 236 236 237 236 235 233 233 232 231 231 231 231 230 230 230 230 231 231 232 232 233 233 233
208 214 215 209 210 216 218 215 215 217 217 220 228 233 234 234 228 223 224 226 222 223 228 226 220 220 220 217 215 215 214 213 213 214 215 217 218 218 218 220 220 220 220 221 222 218 214 214 215 216 219 220 221 223 226 228 230 231 232 234 235 236 237 237 237 237 236 234 232 232 232 232 231 231 231 231 230 230 231 231 231 231 232 234 234 235
211 216 219 213 211 217 224 221 215 215 219 222 229 235 235 233 228 222 223 226 226 227 227 221 218 222 222 218 216 215 215 215 215 216 217 218 219 219 219 220 221 220 219 219 219 217 214 214 214 214 215 216 215 217 220 224 226 227 229 232 233 234 235 238 238 237 235 234 232 231 232 232 232 231 232 232 231 231 231 231 231 231 231 233 234 235
218 219 220 214 212 217 224 224 220 221 224 226 234 240 238 233 229 223 222 226 226 226 224 218 217 222 222 219 215 213 214 216 216 217 218 218 219 219 218 218 220 220 219 218 217 215 214 215 216 215 214 214 215 215 216 219 221 223 226 229 232 234 235 237 238 238 237 236 234 233 233 234 233 232 232 232 232 232 232 232 232 232 232 232 233 234
223 222 221 215 214 219 225 225 222 225 231 236 241 245 242 234 227 224 225 227 223 219 218 219 221 222 221 216 213 213 213 214 215 216 216 217 218 216 216 217 219 219 217 215 213 212 213 216 218 217 215 215 216 217 217 218 219 222 226 228 231 233 234 235 236 238 239 239 238 238 237 236 235 233 232 233 233 234 234 234 233 233 233 233 233 234
221 220 221 217 215 220 226 224 218 219 228 236 239 241 239 233 226 223 228 231 227 221 219 223 225 222 218 215 212 213 213 213 215 216 216 216 216 215 216 218 217 216 214 211 208 207 211 215 215 214 212 212 214 215 217 219 220 224 228 228 229 228 227 229 232 237 241 242 242 242 240 237 235 233 232 232 233 234 235 235 235 235 235 234 234 235
222 216 218 218 216 219 227 226 217 215 221 225 227 226 226 226 222 221 226 232 232 227 224 223 221 216 215 214 211 210 211 211 214 216 216 216 215 215 217 216 214 214 211 208 206 205 207 210 210 209 208 210 213 213 214 216 217 221 223 223 222 220 218 221 226 231 237 240 243 243 240 236 233 231 231 232 233 233 234 236 236 236 236 236 236 236
228 220 220 220 216 217 222 219 214 218 222 223 222 220 218 218 216 216 223 227 230 230 224 217 214 212 212 211 207 205 206 207 210 214 216 216 214 212 212 211 212 213 210 206 206 204 203 204 206 208 209 210 212 212 212 214 215 216 217 217 216 217 218 222 226 230 234 238 243 243 237 232 230 229 230 232 233 233 234 236 236 236 236 237 236 236
225 221 220 221 218 216 216 213 214 222 225 223 222 221 220 225 224 221 225 228 230 233 228 218 214 213 209 206 205 205 205 205 208 213 215 214 213 210 208 208 211 213 210 208 207 205 201 200 201 205 209 210 212 212 213 215 216 215 215 215 216 219 222 224 227 231 233 237 242 245 239 230 225 225 227 229 232 233 234 235 235 236 236 236 236 235
218 221 224 224 223 219 215 217 221 223 222 222 223 221 218 225 229 224 224 230 233 234 230 221 216 213 208 205 205 205 205 207 214 219 217 213 212 212 209 209 211 211 209 207 206 206 204 203 201 203 207 208 210 213 214 216 217 216 217 220 221 223 225 227 228 229 230 233 239 242 240 233 226 224 225 226 229 232 233 234 234 235 234 234 235 235
224 227 223 222 227 224 217 219 222 222 222 223 226 224 220 223 229 224 224 231 233 232 227 218 215 215 210 206 206 205 207 212 219 222 218 213 212 213 211 210 211 210 207 203 201 203 205 206 205 205 207 207 210 215 218 219 220 220 222 225 226 227 228 230 231 232 231 232 233 234 232 230 231 234 233 232 232 233 235 235 234 233 232 232 234 236
269 245 223 218 228 227 220 221 221 220 223 225 226 228 227 225 227 227 231 235 231 226 223 215 211 213 211 208 208 209 211 216 220 221 219 214 213 214 214 213 212 210 208 205 201 202 205 207 207 208 212 213 215 220 222 223 224 223 224 227 229 231 232 233 235 236 235 234 235 235 233 232 234 238 239 238 236 237 239 238 234 232 233 233 234 235
271 258 237 223 227 226 222 226 225 222 225 227 227 231 231 227 224 223 231 235 227 221 220 214 208 208 208 207 210 214 217 218 218 218 216 213 214 216 216 216 213 209 208 207 206 206 207 210 212 214 218 221 223 226 228 229 228 227 227 228 230 233 235 236 238 238 238 237 237 238 238 237 237 238 239 239 241 241 242 242 237 234 235 236 235 236
265 255 238 222 225 228 224 226 231 231 228 228 231 234 233 229 223 220 225 229 221 216 218 215 208 208 208 209 213 218 218 213 210 210 211 211 214 216 217 216 214 212 210 209 209 209 210 213 217 219 223 226 228 230 233 234 234 234 233 233 234 236 238 239 240 241 241 241 242 243 244 243 243 244 244 245 248 248 247 246 243 239 238 238 238 238
265 258 250 235 232 234 226 224 232 235 230 231 236 234 228 224 224 226 228 226 217 213 216 217 213 210 211 214 216 215 212 208 205 207 211 213 214 213 212 211 210 211 212 212 213 214 215 217 221 224 227 230 232 234 235 236 237 238 239 240 240 241 241 242 244 245 245 245 247 249 249 249 249 249 249 250 251 252 252 252 249 245 243 242 242 242
256 256 260 250 239 236 234 231 231 229 231 239 241 233 225 224 227 229 231 228 220 215 215 216 215 214 214 216 216 214 212 210 209 210 213 215 216 213 208 207 207 210 213 215 217 219 221 224 226 229 232 235 236 237 238 237 238 240 241 243 244 244 244 245 246 247 248 249 251 253 254 255 255 255 255 255 255 254 254 254 252 249 247 245 244 244
258 254 256 253 244 238 237 236 232 231 237 245 240 232 231 233 231 230 229 227 223 219 217 215 215 216 216 215 213 214 216 215 214 215 215 215 216 214 210 210 211 213 215 218 219 221 224 228 231 234 237 239 240 241 241 240 240 241 242 244 245 246 247 248 248 249 250 251 253 254 255 256 257 258 259 259 258 256 255 255 254 251 250 248 248 247
262 255 251 252 250 244 240 240 242 243 245 246 240 237 239 239 236 234 232 227 222 221 220 218 217 218 218 216 215 218 220 218 217 218 217 215 215 216 215 214 215 215 217 220 222 224 228 232 235 238 241 243 243 243 242 242 242 242 244 245 246 247 249 250 250 250 251 252 253 254 255 255 256 257 258 259 259 258 257 256 256 255 254 253 253 252
263 258 255 258 260 256 250 252 256 255 253 252 247 243 241 241 239 238 235 231 227 224 224 224 222 221 221 220 219 220 221 220 220 220 219 217 218 220 220 219 218 218 219 220 224 228 231 234 237 240 243 245 246 245 244 244 243 243 244 245 247 248 250 251 252 252 253 253 253 254 255 256 256 257 257 257 258 258 258 257 257 257 257 257 257 257
267 262 260 262 263 259 256 261 265 263 261 260 255 249 245 244 242 239 236 235 233 228 225 225 225 225 226 225 223 222 222 221 220 221 222 222 222 224 224 222 222 223 224 224 226 230 235 238 239 241 243 245 246 247 246 246 245 245 246 247 248 249 250 252 253 254 254 255 255 255 256 256 257 257 257 257 257 257 258 258 258 259 259 259 259 259
267 267 264 262 261 259 258 261 262 261 262 262 257 254 253 249 247 243 238 237 236 231 227 224 224 225 226 225 225 224 225 226 226 225 225 224 223 224 225 225 227 229 231 231 232 234 238 241 242 243 244 245 247 248 248 248 249 249 249 249 250 251 251 252 253 254 255 256 256 257 257 258 258 258 258 258 258 258 258 258 259 260 260 260 261 261
267 269 266 262 265 265 263 261 259 259 263 264 261 258 257 254 251 247 243 241 239 236 232 229 226 225 225 226 228 227 226 228 230 228 227 227 225 223 224 225 227 229 231 234 237 238 240 242 243 244 246 247 249 251 252 252 252 252 252 252 252 252 252 253 254 255 256 256 257 258 258 259 259 259 259 259 259 259 259 259 260 260 260 260 261 261
269 268 265 263 266 266 263 260 258 256 257 259 259 258 258 256 253 250 248 245 242 238 235 233 231 230 228 229 230 227 224 224 224 221 222 225 226 225 225 224 225 227 229 232 236 238 241 243 244 245 246 247 249 251 253 254 254 254 254 254 253 254 253 253 254 255 256 257 257 258 259 259 260 260 261 261 261 261 261 261 260 260 260 260 261 261
268 266 264 263 263 263 262 260 258 256 255 253 254 255 256 255 253 252 251 249 245 242 238 235 233 233 233 232 230 227 224 223 221 219 220 223 226 228 229 229 229 230 231 233 236 238 240 243 245 246 247 248 248 249 252 254 255 255 255 254 254 254 254 255 255 255 256 257 257 258 259 260 260 261 261 262 262 262 263 262 262 262 262 262 262 261